^^
Calpe Station Historical Data
 
Daily Summary for January 18, 2020 Units:  Metric    English   Both
Daily Weekly Monthly Yearly Custom
  Current: High: Low: Average:
Temperature: 11.8 °C 15.3 °C 11.8 °C 13.9 °C
Dew Point: 5 °C 5.3 °C 3.6 °C 4.1 °C
Humidity: 63% 63% 46% 52%
Wind Speed: 3.2km/h 9.7km/h 0km/h 3.2km/h
Wind Gust: 6.4km/h 16.1km/h - -
WindNNW - - West
Pressure: 1028.1 hPa 1030.1 hPa 1028.1 hPa -
Precipitation: 0.0 mm      
Historical Graphs
 
 
Tabular Data for January 18, 2020
Time Temperature Dew Point Pressure Wind Wind Speed Wind Gust Humidity Rainfall Rate (Hourly) solar
00:00 15.3 °C 3.7 °C 1029.9 hPa WNW 4.8 km/h 14.5 km/h 46% 0.0 mm 0 W/m2
00:05 15.3 °C 3.8 °C 1030.0 hPa NW 1.6 km/h 6.4 km/h 46% 0.0 mm 0 W/m2
00:10 15.3 °C 3.8 °C 1029.9 hPa WNW 1.6 km/h 9.7 km/h 46% 0.0 mm 0 W/m2
00:15 15.3 °C 3.8 °C 1029.9 hPa NW 1.6 km/h 8 km/h 46% 0.0 mm 0 W/m2
00:20 15.3 °C 3.7 °C 1029.9 hPa NNE 1.6 km/h 6.4 km/h 46% 0.0 mm 0 W/m2
00:25 15.3 °C 3.7 °C 1030.0 hPa NW 3.2 km/h 6.4 km/h 46% 0.0 mm 0 W/m2
00:30 15.2 °C 3.7 °C 1030.0 hPa WNW 3.2 km/h 4.8 km/h 46% 0.0 mm 0 W/m2
00:35 15.2 °C 3.9 °C 1030.0 hPa NW 1.6 km/h 8 km/h 47% 0.0 mm 0 W/m2
00:40 15.1 °C 3.6 °C 1030.0 hPa NW 3.2 km/h 6.4 km/h 46% 0.0 mm 0 W/m2
00:45 15.1 °C 3.9 °C 1029.9 hPa WNW 1.6 km/h 12.9 km/h 47% 0.0 mm 0 W/m2
00:50 15.1 °C 3.8 °C 1030.1 hPa WNW 1.6 km/h 6.4 km/h 47% 0.0 mm 0 W/m2
00:55 15.1 °C 3.8 °C 1030.0 hPa WNW 3.2 km/h 6.4 km/h 47% 0.0 mm 0 W/m2
01:00 15 °C 3.8 °C 1030.0 hPa WNW 3.2 km/h 11.3 km/h 47% 0.0 mm 0 W/m2
01:05 15 °C 3.8 °C 1030.0 hPa West 4.8 km/h 9.7 km/h 47% 0.0 mm 0 W/m2
01:10 14.9 °C 3.7 °C 1030.0 hPa WSW 3.2 km/h 9.7 km/h 47% 0.0 mm 0 W/m2
01:15 14.9 °C 3.7 °C 1029.9 hPa West 3.2 km/h 9.7 km/h 47% 0.0 mm 0 W/m2
01:20 14.9 °C 3.7 °C 1029.6 hPa West 1.6 km/h 6.4 km/h 47% 0.0 mm 0 W/m2
01:25 14.9 °C 3.7 °C 1029.6 hPa WNW 1.6 km/h 8 km/h 47% 0.0 mm 0 W/m2
01:30 14.8 °C 3.6 °C 1029.6 hPa NW 4.8 km/h 6.4 km/h 47% 0.0 mm 0 W/m2
01:35 14.8 °C 3.9 °C 1029.4 hPa NNW 3.2 km/h 9.7 km/h 48% 0.0 mm 0 W/m2
01:40 14.8 °C 3.9 °C 1029.7 hPa NW 3.2 km/h 11.3 km/h 48% 0.0 mm 0 W/m2
01:45 14.8 °C 3.9 °C 1029.7 hPa Calm   6.4 km/h 48% 0.0 mm 0 W/m2
01:50 14.7 °C 3.8 °C 1029.8 hPa Calm   3.2 km/h 48% 0.0 mm 0 W/m2
01:55 14.7 °C 4.1 °C 1029.8 hPa Calm     49% 0.0 mm 0 W/m2
02:00 14.6 °C 4 °C 1029.8 hPa Calm   1.6 km/h 49% 0.0 mm 0 W/m2
02:05 14.5 °C 4.2 °C 1029.9 hPa Calm   4.8 km/h 50% 0.0 mm 0 W/m2
02:10 14.4 °C 4.1 °C 1029.7 hPa North 3.2 km/h 4.8 km/h 50% 0.0 mm 0 W/m2
02:15 14.3 °C 4 °C 1029.7 hPa NNW 1.6 km/h 4.8 km/h 50% 0.0 mm 0 W/m2
02:20 14.2 °C 3.9 °C 1029.7 hPa NW 3.2 km/h 4.8 km/h 50% 0.0 mm 0 W/m2
02:25 14.1 °C 3.8 °C 1029.7 hPa WNW 1.6 km/h 9.7 km/h 50% 0.0 mm 0 W/m2
02:30 14.1 °C 3.8 °C 1029.7 hPa WNW 1.6 km/h 6.4 km/h 50% 0.0 mm 0 W/m2
02:35 14.1 °C 3.8 °C 1029.8 hPa WNW 1.6 km/h 6.4 km/h 50% 0.0 mm 0 W/m2
02:40 14.1 °C 3.8 °C 1029.8 hPa West 4.8 km/h 9.7 km/h 50% 0.0 mm 0 W/m2
02:45 14.2 °C 3.9 °C 1029.7 hPa West 8 km/h 12.9 km/h 50% 0.0 mm 0 W/m2
02:50 14.3 °C 4 °C 1029.7 hPa West 3.2 km/h 11.3 km/h 50% 0.0 mm 0 W/m2
02:55 14.3 °C 4.1 °C 1029.7 hPa West 3.2 km/h 9.7 km/h 50% 0.0 mm 0 W/m2
03:00 14.4 °C 3.8 °C 1029.6 hPa West 1.6 km/h 11.3 km/h 49% 0.0 mm 0 W/m2
03:05 14.4 °C 3.8 °C 1029.6 hPa West 3.2 km/h 11.3 km/h 49% 0.0 mm 0 W/m2
03:10 14.5 °C 3.6 °C 1029.6 hPa West 1.6 km/h 12.9 km/h 48% 0.0 mm 0 W/m2
03:15 14.6 °C 3.7 °C 1029.4 hPa WNW 4.8 km/h 14.5 km/h 48% 0.0 mm 0 W/m2
03:20 14.6 °C 3.7 °C 1029.4 hPa WNW 3.2 km/h 14.5 km/h 48% 0.0 mm 0 W/m2
03:25 14.7 °C 3.8 °C 1029.3 hPa West 1.6 km/h 9.7 km/h 48% 0.0 mm 0 W/m2
03:30 14.7 °C 3.8 °C 1029.5 hPa Calm   4.8 km/h 48% 0.0 mm 0 W/m2
03:35 14.6 °C 3.7 °C 1029.2 hPa North 1.6 km/h 6.4 km/h 48% 0.0 mm 0 W/m2
03:40 14.6 °C 3.9 °C 1029.1 hPa NNW 3.2 km/h 6.4 km/h 49% 0.0 mm 0 W/m2
03:45 14.5 °C 4.2 °C 1028.8 hPa North 3.2 km/h 6.4 km/h 50% 0.0 mm 0 W/m2
03:50 14.3 °C 4.3 °C 1029.1 hPa North 4.8 km/h 9.7 km/h 51% 0.0 mm 0 W/m2
03:55 14.1 °C 4.4 °C 1029.1 hPa North 8 km/h 9.7 km/h 52% 0.0 mm 0 W/m2
04:00 13.9 °C 4.2 °C 1029.1 hPa North 4.8 km/h 14.5 km/h 52% 0.0 mm 0 W/m2
04:05 13.8 °C 4.3 °C 1029.0 hPa North 1.6 km/h 9.7 km/h 53% 0.0 mm 0 W/m2
04:10 13.7 °C 4.3 °C 1029.0 hPa North 3.2 km/h 6.4 km/h 53% 0.0 mm 0 W/m2
04:15 13.6 °C 4.4 °C 1029.0 hPa North 3.2 km/h 6.4 km/h 54% 0.0 mm 0 W/m2
04:20 13.4 °C 4.5 °C 1028.9 hPa North 3.2 km/h 6.4 km/h 55% 0.0 mm 0 W/m2
04:25 13.2 °C 4.4 °C 1029.0 hPa North 3.2 km/h 6.4 km/h 55% 0.0 mm 0 W/m2
04:30 13.1 °C 4.4 °C 1029.0 hPa North 4.8 km/h 8 km/h 56% 0.0 mm 0 W/m2
04:35 12.9 °C 4.3 °C 1028.8 hPa North 9.7 km/h 16.1 km/h 56% 0.0 mm 0 W/m2
04:40 12.8 °C 4.4 °C 1028.9 hPa North 3.2 km/h 9.7 km/h 57% 0.0 mm 0 W/m2
04:45 12.7 °C 4.4 °C 1028.9 hPa North 3.2 km/h 9.7 km/h 57% 0.0 mm 0 W/m2
04:50 12.6 °C 4.5 °C 1028.9 hPa North 3.2 km/h 9.7 km/h 58% 0.0 mm 0 W/m2
04:55 12.4 °C 4.4 °C 1028.8 hPa North 8 km/h 14.5 km/h 58% 0.0 mm 0 W/m2
05:00 12.3 °C 4.2 °C 1028.8 hPa North 4.8 km/h 12.9 km/h 58% 0.0 mm 0 W/m2
05:05 12.2 °C 4.4 °C 1028.7 hPa North 3.2 km/h 12.9 km/h 59% 0.0 mm 0 W/m2
05:10 12.1 °C 4.3 °C 1028.7 hPa North 4.8 km/h 12.9 km/h 59% 0.0 mm 0 W/m2
05:15 12.1 °C 4.5 °C 1028.7 hPa North 4.8 km/h 12.9 km/h 60% 0.0 mm 0 W/m2
05:20 12.1 °C 4.5 °C 1028.6 hPa North 8 km/h 14.5 km/h 60% 0.0 mm 0 W/m2
05:25 12.1 °C 4.8 °C 1028.4 hPa North 4.8 km/h 12.9 km/h 61% 0.0 mm 0 W/m2
05:30 12.1 °C 4.8 °C 1028.3 hPa North 4.8 km/h 12.9 km/h 61% 0.0 mm 0 W/m2
05:35 12.1 °C 5.1 °C 1028.1 hPa NNW 8 km/h 14.5 km/h 62% 0.0 mm 0 W/m2
05:40 12.2 °C 5.3 °C 1028.3 hPa NNW 4.8 km/h 11.3 km/h 63% 0.0 mm 0 W/m2
05:45 12.2 °C 5.1 °C 1028.3 hPa NNW 1.6 km/h 6.4 km/h 62% 0.0 mm 0 W/m2
05:50 12.1 °C 5 °C 1028.1 hPa NW 1.6 km/h 4.8 km/h 62% 0.0 mm 0 W/m2
05:55 12 °C 4.9 °C 1028.1 hPa NNW 1.6 km/h 4.8 km/h 62% 0.0 mm 0 W/m2
06:00 11.9 °C 5.1 °C 1028.1 hPa NNW 1.6 km/h 4.8 km/h 63% 0.0 mm 0 W/m2
06:05 11.9 °C 5.1 °C 1028.1 hPa NNW 3.2 km/h 6.4 km/h 63% 0.0 mm 0 W/m2
06:10 11.8 °C 5 °C 1028.1 hPa NNW 3.2 km/h 6.4 km/h 63% 0.0 mm 0 W/m2
Juneau County Weather
Compliments of Weather Underground - 2 mb